Voltar ao catálogo

GLOBALSTAR M066

AtivoComunicaçõesLEO
NORAD 32265·PAYLOAD·🇺🇸 United States

Lançado Oct 20, 2007 de Baikonur Cosmodrome

Loading…

Próximas Passagens (próximas 24 horas)

TLE

AtualizadoSource: Space-Track

Época: Sep 14, 2026, 03:08 UTC

1 32265U 07048C   26257.13092222 -.00000129  00000-0 -28841-3 0  9990
2 32265  51.9579 162.5803 0004129 226.7706 280.6827 12.30390570871174

Acompanhe GLOBALSTAR M066 em tempo real com AllMySat

Download on the App Store